Miscellaneous Local Product
Issued by NWS Hastings, NE

Home | Current Version | Previous Version | Text Only | Print | Product List | Glossary Off
Versions: 1 2 3 4 5 6 7 8 9 10 11 12 13 14 15 16 17 18 19 20 21 22 23 24 25 26 27 28 29 30 31 32 33 34 35 36 37 38 39 40 41 42 43 44 45 46 47 48 49 50

892
AXUS43 KGID 220702
MISGRI

GID CWA HOURLY WEATHER ROUNDUP
NATIONAL WEATHER SERVICE HASTINGS NE
200 AM CDT SAT APR 22 2017

NOTE: "FAIR" INDICATES FEW OR NO CLOUDS BELOW 12,000 FEET WITH NO
SIGNIFICANT WEATHER AND/OR OBSTRUCTIONS TO VISIBILITY.

...SOUTH CENTRAL NEBRASKA...

CITY           SKY/WX    TMP DP  RH WIND       PRES   REMARKS
GRAND ISLAND   PTCLDY    41  37  86 N7        30.23S
HASTINGS       CLOUDY    42  35  76 N8        30.22S
KEARNEY        CLOUDY    41  32  70 N6        30.23S
ORD            CLOUDY    42  37  82 CALM      30.24R
YORK           CLOUDY    41  37  87 N7        30.22S
AURORA         CLOUDY    40  36  85 N8        30.22S WCI  35
LEXINGTON      PTCLDY    35  32  87 N8        30.24S WCI  29
HOLDREGE       CLOUDY    42  34  73 N5        30.23S
HEBRON         CLOUDY    49  37  64 N9        30.19R

...NEBRASKA PANHANDLE...

CITY           SKY/WX    TMP DP  RH WIND       PRES   REMARKS
CHADRON        PTCLDY    37  32  82 S3        30.24R
ALLIANCE       PTCLDY    38  32  79 SE6       30.24R WCI  33
SCOTTSBLUFF    PTCLDY    40  36  86 NE3       30.24R
SIDNEY         CLOUDY    34  34 100 NW6       30.24R WCI  29

...WESTERN AND NORTH CENTRAL NEBRASKA...

CITY           SKY/WX    TMP DP  RH WIND       PRES   REMARKS
VALENTINE      CLEAR     34  29  82 NW7       30.27R WCI  28
AINSWORTH      CLOUDY    38  35  89 W6        30.26S WCI  33
ONEILL         CLOUDY    45  39  82 NW7       30.25S
BROKEN BOW     CLEAR     34  30  85 N5        30.24S WCI  30
IMPERIAL       PTCLDY    40  35  83 E3        30.25R
NORTH PLATTE   MOCLDY    34  32  92 E3        30.26R
MCCOOK         CLOUDY    37  33  85 W3        30.25R

...EASTERN NEBRASKA...

CITY           SKY/WX    TMP DP  RH WIND       PRES   REMARKS
NORFOLK        CLOUDY    42  38  85 CALM      30.23S
SO SIOUX CITY  CLOUDY    40  39  97 NW6       30.23S
TEKAMAH        CLOUDY    44  39  82 NW8       30.22R
COLUMBUS       CLOUDY    45  36  70 N7        30.23S
ALBION         CLOUDY    44  40  85 CALM      30.25R
OMAHA EPPLEY   CLOUDY    46  38  73 N7        30.20R
OFFUTT AFB     CLOUDY    49  38  65 N7        30.18R
MILLARD        CLOUDY    52  40  64 CALM      30.20R
LINCOLN        PTCLDY    46  39  76 N7        30.21R
NEBRASKA CITY  CLOUDY    49  34  57 NE12      30.16S
BEATRICE       MOCLDY    49  39  67 N10G16    30.17R
FALLS CITY     CLOUDY    51  38  60 NE10      30.13R

...NORTHERN KANSAS...

CITY           SKY/WX    TMP DP  RH WIND       PRES   REMARKS
GOODLAND       PTCLDY    39  38  96 NE6       30.23R WCI  35
HILL CITY      NOT AVBL
NORTON         MOSUNNY   39  36  87 W7        30.23R WCI  34
PHILLIPSBURG   CLOUDY    45  45 100 NW5       30.22S
SMITH CENTER   CLOUDY    43  41  93 NW3       30.21S
HAYS           CLOUDY    45  40  82 N9        30.20R
RUSSELL        CLOUDY    45  41  86 N7        30.17S
CONCORDIA      CLOUDY    47  42  83 N6        30.17S
SALINA         CLOUDY    48  44  86 NW8       30.14S
TOPEKA         CLOUDY    52  40  63 NE10      30.09R



USA.gov is the U.S. government's official web portal to all federal, state and local government web resources and services.